TimeCDT,TemperatureF,Dew PointF,Humidity,Sea Level PressureIn,VisibilityMPH,Wind Direction,Wind SpeedMPH,Gust SpeedMPH,PrecipitationIn,Events,Conditions,WindDirDegrees,DateUTC
12:53 AM,70.0,64.0,81,30.11,10.0,East,5.8,-,N/A,,Clear,90,2013-09-05 05:53:00
1:53 AM,70.0,64.0,81,30.11,10.0,ESE,3.5,-,N/A,,Clear,110,2013-09-05 06:53:00
2:53 AM,70.0,64.0,81,30.11,10.0,ESE,5.8,-,N/A,,Clear,110,2013-09-05 07:53:00
3:53 AM,68.0,64.9,90,30.10,10.0,East,4.6,-,N/A,,Clear,100,2013-09-05 08:53:00
4:53 AM,66.9,64.9,93,30.10,10.0,ESE,3.5,-,N/A,,Clear,120,2013-09-05 09:53:00
5:53 AM,66.9,64.0,90,30.12,10.0,ESE,4.6,-,N/A,,Clear,110,2013-09-05 10:53:00
6:53 AM,64.9,63.0,93,30.12,10.0,ESE,6.9,-,N/A,,Clear,110,2013-09-05 11:53:00
7:53 AM,66.0,63.0,90,30.13,10.0,ESE,4.6,-,N/A,,Clear,110,2013-09-05 12:53:00
8:53 AM,71.1,64.0,78,30.13,10.0,SE,6.9,-,N/A,,Clear,130,2013-09-05 13:53:00
9:53 AM,75.0,64.0,69,30.13,10.0,SSE,10.4,-,N/A,,Clear,160,2013-09-05 14:53:00
10:53 AM,78.1,62.1,58,30.13,10.0,South,10.4,-,N/A,,Partly Cloudy,170,2013-09-05 15:53:00
11:53 AM,81.0,62.1,52,30.12,10.0,SSE,12.7,-,N/A,,Clear,160,2013-09-05 16:53:00
12:53 PM,82.9,60.1,46,30.10,10.0,SSE,12.7,-,N/A,,Clear,160,2013-09-05 17:53:00
1:53 PM,84.9,60.1,43,30.07,10.0,SSE,16.1,24.2,N/A,,Clear,160,2013-09-05 18:53:00
2:53 PM,86.0,61.0,43,30.07,10.0,SSE,20.7,25.3,N/A,,Partly Cloudy,160,2013-09-05 19:53:00
3:53 PM,86.0,61.0,43,30.05,10.0,SSE,18.4,26.5,N/A,,Clear,160,2013-09-05 20:53:00
4:53 PM,86.0,62.1,44,30.04,10.0,SSE,18.4,24.2,N/A,,Clear,160,2013-09-05 21:53:00
5:53 PM,82.9,64.0,53,30.05,10.0,SSE,16.1,28.8,N/A,,Clear,160,2013-09-05 22:53:00
6:53 PM,80.1,64.9,60,30.04,10.0,South,15.0,23.0,N/A,,Clear,170,2013-09-05 23:53:00
7:53 PM,75.9,66.0,71,30.04,10.0,South,12.7,-,N/A,,Clear,170,2013-09-06 00:53:00
8:53 PM,73.0,66.0,79,30.05,10.0,SSE,10.4,-,N/A,,Clear,160,2013-09-06 01:53:00
9:53 PM,71.1,66.0,84,30.04,10.0,South,11.5,-,N/A,,Clear,170,2013-09-06 02:53:00
10:53 PM,70.0,66.0,87,30.03,10.0,South,10.4,-,N/A,,Clear,170,2013-09-06 03:53:00
11:53 PM,69.1,64.9,87,30.02,10.0,SSE,10.4,-,N/A,,Clear,160,2013-09-06 04:53:00